Kuressaare

Estonia     58˚14′56″N   22˚29′24″E
temp.,
°C
wind,
m/s
gust,
m/s
humid.,
%
clouds,
%
prec.,
mm/h
press.,
hPa
HPBL,
m
29 november, sun
sun2923:00+3˚ene5677100 0.1 1026749
02:00+3˚ene5677100 0.2 1027719
05:00+3˚ene5781100 0.1 1027684
08:00+2˚ene578197 0.3 1027641
11:00+2˚ene567999 0.2 1026717
14:00+2˚ene457993 0.3 1026603
17:00+1˚ne468243 0.0 1025490
20:00+1˚ne457765 0.1 1024727
30 november, mon
mon3023:00nne348281 0.0 1023402
02:00nne348383 0.1 1022452
05:00n238398 0.0 1020345
08:00n118398 0.0 1020225
11:00nw118999 0.1 1018182
14:00wsw129696 0.4 1017145
17:00+1˚wsw249699 0.4 1016287
20:00+3˚wsw367396 0.4 1016622
1 december, tue
tue123:00+3˚ssw468298 0.3 1016512
02:00+3˚ssw588499 0.6 1016511
05:00+4˚sw5878100 0.1 1016655
08:00+5˚sw4885100 0.3 1018521
11:00+5˚ssw6984100 0.1 1019478
14:00+6˚sw71085100 0.3 1021699
17:00+5˚sw81290100 1.4 1022762
20:00+5˚sw71086100 1.6 1025712
2 december, wed
wed223:00+5˚sw698496 0.1 1026626
02:00+4˚ssw7108798 0.1 1027550
05:00+4˚ssw588593 0.0 1026489
08:00+3˚ssw568483 0.0 1027448
11:00+3˚s458072 0.0 1027484
14:00+2˚s467247 0.0 1027650
17:00+2˚s57730 0.0 1026491
20:00+2˚s58723 0.0 1026540
3 december, thu
thu323:00+2˚s687280 0.0 1025669
02:00+2˚sse687290 0.0 1024604
05:00+2˚sse6879100 0.0 1023594
08:00+2˚sse7884100 0.0 1022703
11:00+2˚sse6883100 0.1 1022808
14:00+2˚sse6781100 0.3 1021753
17:00+2˚sse6777100 0.1 1020757
20:00+2˚sse6877100 0.2 1020840